This is the latest recevied weather packets stored in our database for station/object W8CEN. If no packets are shown the sender has not sent any weather packets the latest 10 day(s).
| Time | Temp. | Humidity | Pressure | Rain* | Wind** | Luminosity | Snow |
|---|---|---|---|---|---|---|---|
| 1778042244 | 8.89° C | 98% | 987.6 hPa | 1.78 mm | - | 0 W/m² | - |
| 1778041942 | 8.89° C | 98% | 987.8 hPa | 1.78 mm | - | 0 W/m² | - |
| 1778041640 | 8.89° C | 98% | 987.5 hPa | 0 mm | - | 0 W/m² | - |
| 1778041338 | 8.89° C | 98% | 987.8 hPa | 0 mm | - | 0 W/m² | - |
| 1778041036 | 8.89° C | 98% | 987.8 hPa | 0 mm | - | 0 W/m² | - |
| 1778040733 | 8.89° C | 98% | 987.7 hPa | 0 mm | - | 0 W/m² | - |
| 1778040431 | 8.89° C | 98% | 987.6 hPa | 0 mm | - | 0 W/m² | - |
| 1778040127 | 8.89° C | 98% | 987.7 hPa | 0 mm | - | 0 W/m² | - |
| 1778039824 | 8.89° C | 98% | 987.4 hPa | 0 mm | - | 0 W/m² | - |
| 1778039521 | 8.89° C | 98% | 987.8 hPa | 0 mm | - | 0 W/m² | - |
| 1778039218 | 8.89° C | 98% | 987.6 hPa | 0 mm | - | 0 W/m² | - |
| 1778038915 | 8.89° C | 98% | 987.6 hPa | 1.78 mm | - | 0 W/m² | - |
| 1778038613 | 8.89° C | 98% | 987.6 hPa | 1.78 mm | - | 0 W/m² | - |
| 1778038309 | 8.89° C | 98% | 987.4 hPa | 0 mm | - | 0 W/m² | - |
| 1778038006 | 8.89° C | 98% | 987.6 hPa | 0 mm | - | 0 W/m² | - |
| 1778037703 | 8.89° C | 98% | 987.8 hPa | 1.27 mm | - | 0 W/m² | - |
| 1778037400 | 8.89° C | 98% | 987.9 hPa | 1.27 mm | - | 0 W/m² | - |
| 1778037097 | 8.89° C | 98% | 987.9 hPa | 1.78 mm | - | 0 W/m² | - |
| 1778036796 | 8.89° C | 98% | 988 hPa | 1.78 mm | - | 0 W/m² | - |
| 1778036493 | 8.89° C | 98% | 988.1 hPa | 1.27 mm | - | 0 W/m² | - |
| 1778036189 | 8.89° C | 98% | 988.2 hPa | 1.27 mm | - | 0 W/m² | - |
| 1778035885 | 8.89° C | 98% | 988.1 hPa | 0 mm | - | 0 W/m² | - |
| 1778035583 | 8.89° C | 98% | 988 hPa | 1.78 mm | - | 0 W/m² | - |
| 1778035279 | 8.89° C | 98% | 988.2 hPa | 1.78 mm | - | 0 W/m² | - |
| 1778034975 | 8.89° C | 97% | 987.9 hPa | 0 mm | - | 0 W/m² | - |
* Rain latest hour (hover to see other rain measurements)
** Current wind speed in m/s (hover to see current wind gust speed)